Weather History for Tacoma, WA

Change the Weather History Date:

Saturday, February 15, 2014

  Actual Average Record
Temperature  
Mean Temperature 40 °F -  
Max Temperature 51 °F 47 °F 59 °F (1997)
Min Temperature 30 °F 30 °F 10 °F (1956)
Degree Days  
Heating Degree Days 24    
Moisture  
Dew Point 40 °F    
Average Humidity 98    
Maximum Humidity 100    
Minimum Humidity 81    
Precipitation  
Precipitation 0.47 in - - ()
Sea Level Pressure  
Sea Level Pressure 29.61 in    
Wind  
Wind Speed 6 mph (SSE)    
Max Wind Speed 31 mph    
Max Gust Speed 45 mph    
Visibility 7 miles    
Events Fog , Rain    
Averages and records for this station are not official NWS values.
T = Trace of Precipitation, MM = Missing Value Source: NWS Daily Summary

Daily Weather History Graph

Daily Weather History Graph

Search for Another Location

Airport:

Trip Planner

Search our weather history database for the weather conditions in past years. The results will help you decide how hot, cold, wet, or windy it might be!

Date:

Astronomy

Feb. 15, 2014 Rise Set
Actual Time 7:14 AM PST 5:34 PM PST
Civil Twilight 6:43 AM PST 6:05 PM PST
Nautical Twilight 6:07 AM PST 6:41 PM PST
Astronomical Twilight 5:32 AM PST 7:16 PM PST
Moon 6:46 PM PST (2/15) 7:10 AM PST (2/15)
Length of Visible Light 11h 22m
Length of Day
10h 19m
Full, 99% of the Moon is Illuminated
Feb 15
Full
Feb 22
Last Quarter
Mar 1
New
Mar 8
First Quarter
Mar 16
Full

Hourly Weather History & Observations

Time (PST) Temp. Windchill Dew Point Humidity Pressure Visibility Wind Dir Wind Speed Gust Speed Precip Events Conditions
12:58 AM 33.1 °F 30.0 °F 32.9 °F 99% 29.96 in 3.0 mi East 3.5 mph - N/A   Clear
1:03 AM 32.0 °F 27.5 °F 32.0 °F 100% 29.93 in 2.0 mi East 4.6 mph - N/A   Clear
1:08 AM 32.0 °F 28.7 °F 32.0 °F 100% 29.93 in 2.5 mi East 3.5 mph - N/A   Clear
1:13 AM 33.8 °F 30.8 °F 33.8 °F 100% 29.93 in 7.0 mi East 3.5 mph - N/A   Clear
1:33 AM 32.0 °F 28.7 °F 32.0 °F 100% 29.93 in 1.5 mi ESE 3.5 mph - N/A   Clear
1:38 AM 32.0 °F 28.7 °F 32.0 °F 100% 29.93 in 2.5 mi ESE 3.5 mph - N/A   Clear
1:43 AM 32.0 °F - 32.0 °F 100% 29.92 in 5.0 mi East 1.2 mph - N/A   Clear
1:48 AM 32.0 °F - 32.0 °F 100% 29.91 in 1.8 mi ENE 2.3 mph - N/A   Clear
1:53 AM 33.8 °F - 33.8 °F 100% 29.91 in 2.0 mi Calm Calm - N/A   Clear
1:58 AM 34.3 °F - 34.3 °F 100% 29.93 in 10.0 mi Calm Calm - N/A   Clear
2:18 AM 33.8 °F - 33.8 °F 100% 29.90 in 2.5 mi Calm Calm - N/A   Clear
2:23 AM 32.0 °F - 32.0 °F 100% 29.90 in 1.2 mi Calm Calm - N/A   Clear
2:28 AM 32.0 °F - 32.0 °F 100% 29.90 in 1.0 mi Calm Calm - N/A   Clear
2:33 AM 32.0 °F - 32.0 °F 100% 29.89 in 0.8 mi Calm Calm - N/A   Clear
2:38 AM 32.0 °F - 32.0 °F 100% 29.90 in 1.2 mi Calm Calm - N/A   Clear
2:43 AM 32.0 °F - 32.0 °F 100% 29.90 in 2.0 mi Calm Calm - N/A   Clear
2:48 AM 32.0 °F - 32.0 °F 100% 29.89 in 2.0 mi Calm Calm - N/A   Partly Cloudy
2:53 AM 32.0 °F - 32.0 °F 100% 29.89 in 0.8 mi Calm Calm - N/A   Partly Cloudy
2:58 AM 32.0 °F - 32.0 °F 100% 29.91 in 0.5 mi Calm Calm - N/A Fog Light Freezing Fog
3:08 AM 32.0 °F - 32.0 °F 100% 29.88 in 0.8 mi Calm Calm - N/A   Partly Cloudy
3:13 AM 32.0 °F - 32.0 °F 100% 29.88 in 0.8 mi East 2.3 mph - N/A   Partly Cloudy
3:18 AM 32.0 °F - 32.0 °F 100% 29.88 in 1.0 mi ENE 1.2 mph - N/A   Clear
3:23 AM 32.0 °F - 32.0 °F 100% 29.88 in 2.0 mi Calm Calm - N/A   Clear
3:28 AM 32.0 °F - 32.0 °F 100% 29.88 in 5.0 mi Calm Calm - N/A   Clear
3:53 AM 32.0 °F - 32.0 °F 100% 29.85 in 1.5 mi NE 1.2 mph - N/A   Clear
3:58 AM 32.0 °F 28.7 °F 32.0 °F 100% 29.87 in 0.8 mi ENE 3.5 mph - N/A   Clear
4:08 AM 32.0 °F - 32.0 °F 100% 29.84 in 2.5 mi East 1.2 mph - N/A   Clear
4:13 AM 32.0 °F - 32.0 °F 100% 29.85 in 8.0 mi ESE 1.2 mph - N/A   Clear
4:43 AM 32.0 °F 28.7 °F 32.0 °F 100% 29.84 in 2.0 mi Variable 3.5 mph - N/A   Clear
4:48 AM 32.0 °F - 32.0 °F 100% 29.84 in 1.5 mi Calm Calm - N/A   Clear
4:53 AM 32.0 °F - 32.0 °F 100% 29.84 in 2.5 mi Calm Calm - N/A   Clear
4:58 AM 30.7 °F - 30.7 °F 100% 29.85 in 4.0 mi ENE 2.3 mph - N/A   Clear
5:58 AM 31.5 °F - 31.5 °F 100% 29.80 in 10.0 mi North - - N/A   Clear
6:58 AM 30.0 °F - 30.0 °F 100% 29.77 in 7.0 mi Calm Calm - N/A   Mostly Cloudy
7:58 AM 31.6 °F - 31.6 °F 100% 29.71 in 10.0 mi Calm Calm - N/A   Scattered Clouds
8:58 AM 34.5 °F - 34.3 °F 99% 29.67 in 10.0 mi Calm Calm - N/A   Mostly Cloudy
9:10 AM 35.6 °F - 35.6 °F 100% 29.64 in 10.0 mi North 1.2 mph - N/A Rain Light Rain
9:28 AM 37.4 °F - 37.4 °F 100% 29.62 in 10.0 mi Calm Calm - N/A   Mostly Cloudy
9:48 AM 39.2 °F - 39.2 °F 100% 29.61 in 10.0 mi Calm Calm - N/A Rain Light Rain
9:58 AM 39.2 °F - 39.0 °F 99% 29.62 in 10.0 mi Calm Calm - 0.00 in Rain Light Rain
10:58 AM 39.7 °F 36.5 °F 39.6 °F 99% 29.58 in 10.0 mi East 4.6 mph - 0.05 in Rain Light Rain
11:58 AM 41.0 °F - 40.8 °F 99% 29.55 in 6.0 mi Calm Calm - 0.04 in   Overcast
12:58 PM 42.6 °F - 42.6 °F 100% 29.48 in 8.0 mi ENE 1.2 mph - 0.09 in Rain Light Rain
1:58 PM 44.8 °F - 44.8 °F 100% 29.42 in 10.0 mi Calm Calm - 0.02 in Rain Light Rain
2:55 PM 48.2 °F - 48.2 °F 100% 29.35 in 8.0 mi SE 16.1 mph 24.2 mph N/A   Overcast
2:58 PM 48.7 °F - 48.6 °F 99% 29.37 in 7.0 mi SE 13.8 mph 24.2 mph 0.03 in   Overcast
2:59 PM 48.2 °F - 48.2 °F 100% 29.35 in 7.0 mi SE 15.0 mph 24.2 mph N/A Rain Light Rain
3:13 PM 48.2 °F - 48.2 °F 100% 29.34 in 10.0 mi SSE 15.0 mph 23.0 mph N/A   Overcast
3:15 PM 48.2 °F - 48.2 °F 100% 29.34 in 10.0 mi SE 13.8 mph 23.0 mph N/A Rain Light Rain
3:25 PM 48.2 °F - 48.2 °F 100% 29.33 in 8.0 mi SE 16.1 mph - N/A   Overcast
3:27 PM 48.2 °F - 48.2 °F 100% 29.33 in 8.0 mi SE 13.8 mph - N/A Rain Light Rain
3:58 PM 48.9 °F - 48.2 °F 97% 29.32 in 10.0 mi SE 13.8 mph 20.7 mph 0.04 in Rain Light Rain
4:27 PM 50.0 °F - 50.0 °F 100% 29.28 in 10.0 mi SSE 12.7 mph - N/A   Overcast
4:29 PM 50.0 °F - 50.0 °F 100% 29.28 in 10.0 mi SSE 11.5 mph - N/A Rain Light Rain
4:57 PM 50.0 °F - 50.0 °F 100% 29.26 in 8.0 mi SSE 13.8 mph 24.2 mph N/A   Overcast
4:58 PM 49.5 °F - 49.3 °F 99% 29.28 in 8.0 mi SSE 13.8 mph 19.6 mph 0.02 in   Overcast
5:10 PM 50.0 °F - 48.2 °F 94% 29.27 in 9.0 mi South 11.5 mph 18.4 mph N/A Rain Light Rain
5:19 PM 48.2 °F - 48.2 °F 100% 29.29 in 4.0 mi SSW 12.7 mph - N/A Rain Rain
5:24 PM 48.2 °F - 48.2 °F 100% 29.28 in 2.5 mi South 11.5 mph 17.3 mph N/A Rain Light Rain
5:34 PM 48.2 °F - 48.2 °F 100% 29.28 in 4.0 mi SSE 9.2 mph - N/A Rain Light Rain
5:50 PM 48.2 °F - 48.2 °F 100% 29.28 in 10.0 mi SSE 16.1 mph - N/A   Mostly Cloudy
5:58 PM 49.1 °F - 48.9 °F 99% 29.31 in 10.0 mi SSE 13.8 mph - 0.14 in   Mostly Cloudy
6:13 PM 48.2 °F - 48.2 °F 100% 29.30 in 10.0 mi South 11.5 mph - N/A   Overcast
6:14 PM 48.2 °F - 48.2 °F 100% 29.30 in 10.0 mi South 13.8 mph 18.4 mph N/A Rain Light Rain
6:19 PM 50.0 °F - 48.2 °F 94% 29.31 in 10.0 mi South 18.4 mph 24.2 mph N/A Rain Light Rain
6:24 PM 50.0 °F - 50.0 °F 100% 29.31 in 9.0 mi SSW 27.6 mph 43.7 mph N/A Rain Light Rain
6:29 PM 51.8 °F - 50.0 °F 94% 29.32 in 9.0 mi SSW 31.1 mph 43.7 mph N/A Rain Light Rain
6:32 PM 51.8 °F - 51.8 °F 100% 29.34 in 9.0 mi SW 25.3 mph 43.7 mph N/A Rain Light Rain
6:42 PM 50.0 °F - 48.2 °F 94% 29.37 in 9.0 mi SW 26.5 mph 44.9 mph N/A Rain Light Rain
6:47 PM 48.2 °F - 48.2 °F 100% 29.38 in 10.0 mi SW 26.5 mph 41.4 mph N/A Rain Light Rain
6:48 PM 48.2 °F - 48.2 °F 100% 29.38 in 10.0 mi SW 26.5 mph 41.4 mph N/A   Overcast
6:49 PM 48.2 °F - 48.2 °F 100% 29.38 in 10.0 mi SW 24.2 mph 38.0 mph N/A   Light Drizzle
6:58 PM 47.7 °F - 47.3 °F 99% 29.43 in 10.0 mi SW 31.1 mph 39.1 mph 0.02 in Rain Light Rain
7:03 PM 46.4 °F 38.5 °F 46.4 °F 100% 29.42 in 10.0 mi SW 21.9 mph 39.1 mph N/A Rain Light Rain
7:13 PM 46.4 °F 38.3 °F 44.6 °F 93% 29.44 in 10.0 mi SSW 23.0 mph 32.2 mph N/A Rain Light Rain
7:14 PM 46.4 °F 38.3 °F 44.6 °F 93% 29.44 in 10.0 mi SSW 23.0 mph 32.2 mph N/A   Mostly Cloudy
7:30 PM 44.6 °F 36.4 °F 44.6 °F 100% 29.48 in 10.0 mi SW 20.7 mph 33.4 mph N/A Rain Light Rain
7:40 PM 44.6 °F 37.4 °F 44.6 °F 100% 29.50 in 10.0 mi SW 16.1 mph 27.6 mph N/A Rain Light Rain
7:45 PM 44.6 °F 37.8 °F 44.6 °F 100% 29.51 in 10.0 mi SSW 15.0 mph 27.6 mph N/A   Overcast
7:50 PM 44.6 °F 36.6 °F 42.8 °F 93% 29.52 in 10.0 mi SSW 19.6 mph - N/A   Overcast
7:58 PM 44.6 °F 37.4 °F 43.5 °F 96% 29.55 in 10.0 mi SSW 16.1 mph 21.9 mph 0.00 in   Overcast
8:58 PM 43.3 °F 38.1 °F 41.2 °F 92% 29.58 in 10.0 mi South 9.2 mph - N/A   Mostly Cloudy
9:23 PM 44.6 °F 37.2 °F 39.2 °F 81% 29.59 in 10.0 mi SSW 17.3 mph 20.7 mph N/A Rain Light Rain
9:38 PM 42.8 °F 38.6 °F 41.0 °F 93% 29.61 in 7.0 mi WSW 6.9 mph 16.1 mph N/A Rain Light Rain
9:48 PM 42.8 °F 36.2 °F 41.0 °F 93% 29.62 in 10.0 mi South 12.7 mph - N/A Rain Light Rain
9:50 PM 42.8 °F 37.5 °F 41.0 °F 93% 29.62 in 10.0 mi SSW 9.2 mph 16.1 mph N/A   Mostly Cloudy
9:58 PM 42.6 °F 36.8 °F 41.4 °F 95% 29.64 in 10.0 mi South 10.4 mph 21.9 mph 0.02 in   Mostly Cloudy
10:13 PM 42.8 °F 38.0 °F 41.0 °F 93% 29.63 in 10.0 mi South 8.1 mph 18.4 mph N/A   Mostly Cloudy
10:18 PM 41.0 °F 34.7 °F 41.0 °F 100% 29.63 in 10.0 mi South 10.4 mph 18.4 mph N/A   Mostly Cloudy
10:38 PM 41.0 °F 34.3 °F 41.0 °F 100% 29.64 in 10.0 mi South 11.5 mph - N/A   Mostly Cloudy
10:43 PM 41.0 °F 34.7 °F 39.2 °F 93% 29.65 in 10.0 mi South 10.4 mph - N/A   Scattered Clouds
10:58 PM 41.0 °F 33.9 °F 39.7 °F 95% 29.68 in 10.0 mi South 12.7 mph - N/A   Mostly Cloudy
11:58 PM 41.2 °F 36.6 °F 39.0 °F 92% 29.69 in 10.0 mi South 6.9 mph - N/A   Partly Cloudy